TimeCDT,TemperatureF,Dew PointF,Humidity,Sea Level PressureIn,VisibilityMPH,Wind Direction,Wind SpeedMPH,Gust SpeedMPH,PrecipitationIn,Events,Conditions,WindDirDegrees,DateUTC
12:15 AM,53.2,28.4,38,29.87,10.0,SSW,10.4,20.7,N/A,,Clear,210,2012-10-09 05:15:00
12:35 AM,53.1,28.9,40,29.86,10.0,SSW,10.4,-,N/A,,Clear,210,2012-10-09 05:35:00
12:55 AM,53.1,29.1,40,29.86,10.0,SSW,11.5,17.3,N/A,,Clear,210,2012-10-09 05:55:00
1:15 AM,53.1,29.3,40,29.85,10.0,SSW,13.8,-,N/A,,Clear,210,2012-10-09 06:15:00
1:55 AM,52.7,29.7,41,29.85,10.0,SW,12.7,21.9,N/A,,Clear,220,2012-10-09 06:55:00
2:15 AM,52.7,29.8,42,29.85,10.0,SSW,13.8,21.9,N/A,,Clear,210,2012-10-09 07:15:00
2:55 AM,52.3,30.2,43,29.85,10.0,SW,10.4,20.7,N/A,,Overcast,220,2012-10-09 07:55:00
3:15 AM,52.3,30.4,43,29.84,10.0,SSW,12.7,18.4,N/A,,Overcast,210,2012-10-09 08:15:00
3:35 AM,52.0,30.7,44,29.84,10.0,SW,8.1,16.1,N/A,,Overcast,220,2012-10-09 08:35:00
3:55 AM,52.0,30.9,45,29.83,10.0,SW,10.4,-,N/A,,Overcast,220,2012-10-09 08:55:00
4:15 AM,52.0,31.1,45,29.83,10.0,SSW,8.1,-,N/A,,Overcast,210,2012-10-09 09:15:00
4:35 AM,52.0,31.3,45,29.83,10.0,SSW,9.2,-,N/A,,Overcast,210,2012-10-09 09:35:00
4:55 AM,52.0,31.6,46,29.83,10.0,SSW,9.2,-,N/A,,Overcast,210,2012-10-09 09:55:00
5:15 AM,52.3,31.8,46,29.83,10.0,SSW,11.5,18.4,N/A,,Overcast,210,2012-10-09 10:15:00
5:35 AM,52.7,31.8,45,29.83,10.0,SW,11.5,20.7,N/A,,Mostly Cloudy,220,2012-10-09 10:35:00
5:55 AM,52.5,31.8,45,29.83,10.0,SW,15.0,-,N/A,,Overcast,220,2012-10-09 10:55:00
6:15 AM,52.2,32.0,46,29.83,10.0,SW,11.5,19.6,N/A,,Mostly Cloudy,220,2012-10-09 11:15:00
6:55 AM,51.8,32.0,47,29.83,10.0,SSW,11.5,-,N/A,,Overcast,210,2012-10-09 11:55:00
7:15 AM,52.0,32.0,47,29.82,10.0,SSW,16.1,19.6,N/A,,Overcast,210,2012-10-09 12:15:00
7:35 AM,52.0,32.2,47,29.82,10.0,SSW,11.5,-,N/A,,Overcast,210,2012-10-09 12:35:00
7:55 AM,52.2,32.4,47,29.83,10.0,SSW,10.4,-,N/A,,Mostly Cloudy,210,2012-10-09 12:55:00
8:15 AM,52.7,32.5,46,29.82,10.0,SSW,8.1,17.3,N/A,,Mostly Cloudy,210,2012-10-09 13:15:00
8:35 AM,52.9,32.9,47,29.83,10.0,SW,12.7,-,N/A,,Scattered Clouds,220,2012-10-09 13:35:00
8:55 AM,53.2,33.1,46,29.83,10.0,SW,11.5,-,N/A,,Scattered Clouds,220,2012-10-09 13:55:00
9:15 AM,53.2,33.3,47,29.83,10.0,SW,11.5,20.7,N/A,,Mostly Cloudy,220,2012-10-09 14:15:00
9:35 AM,53.8,33.4,46,29.82,10.0,SSW,10.4,16.1,N/A,,Overcast,210,2012-10-09 14:35:00
9:55 AM,54.0,33.8,46,29.81,10.0,SW,9.2,-,N/A,,Overcast,220,2012-10-09 14:55:00
10:15 AM,54.7,33.8,45,29.80,10.0,SW,9.2,19.6,N/A,,Mostly Cloudy,220,2012-10-09 15:15:00
10:35 AM,55.4,34.0,44,29.80,10.0,SW,9.2,-,N/A,,Scattered Clouds,220,2012-10-09 15:35:00
10:55 AM,58.3,33.4,39,29.80,10.0,SW,10.4,17.3,N/A,,Clear,220,2012-10-09 15:55:00
10:59 AM,59.0,33.8,39,29.80,10.0,SW,10.4,-,N/A,,Clear,220,2012-10-09 15:59:00
11:15 AM,59.2,33.6,38,29.80,10.0,SSW,11.5,-,N/A,,Clear,210,2012-10-09 16:15:00
11:35 AM,59.9,33.4,37,29.80,10.0,SSW,15.0,21.9,N/A,,Mostly Cloudy,210,2012-10-09 16:35:00
11:55 AM,59.4,33.8,38,29.80,10.0,SW,15.0,21.9,N/A,,Mostly Cloudy,220,2012-10-09 16:55:00
12:15 PM,59.2,34.0,39,29.80,10.0,WSW,17.3,21.9,N/A,,Overcast,240,2012-10-09 17:15:00
12:35 PM,61.0,33.8,36,29.79,10.0,SW,13.8,19.6,N/A,,Overcast,220,2012-10-09 17:35:00
12:55 PM,61.2,34.3,37,29.77,10.0,SW,11.5,18.4,N/A,,Scattered Clouds,230,2012-10-09 17:55:00
1:15 PM,61.9,35.1,37,29.76,10.0,SW,13.8,20.7,N/A,,Scattered Clouds,220,2012-10-09 18:15:00
1:35 PM,61.7,35.4,38,29.76,10.0,SW,11.5,17.3,N/A,,Mostly Cloudy,220,2012-10-09 18:35:00
1:55 PM,62.8,35.6,36,29.76,10.0,WSW,11.5,20.7,N/A,,Overcast,240,2012-10-09 18:55:00
2:15 PM,61.3,36.3,39,29.76,10.0,WSW,10.4,17.3,N/A,,Overcast,240,2012-10-09 19:15:00
2:35 PM,57.7,39.2,50,29.79,10.0,WNW,19.6,24.2,N/A,,Overcast,290,2012-10-09 19:35:00
2:55 PM,54.5,40.6,60,29.80,10.0,WNW,20.7,27.6,N/A,,Overcast,290,2012-10-09 19:55:00
3:15 PM,51.8,43.0,72,29.80,10.0,WNW,16.1,26.5,N/A,,Overcast,290,2012-10-09 20:15:00
3:35 PM,50.5,45.0,81,29.80,7.0,West,11.5,-,N/A,,Overcast,270,2012-10-09 20:35:00
3:55 PM,50.2,45.3,83,29.81,10.0,West,17.3,23.0,N/A,,Overcast,280,2012-10-09 20:55:00
4:15 PM,49.3,44.6,84,29.83,7.0,WNW,12.7,18.4,N/A,,Overcast,290,2012-10-09 21:15:00
4:35 PM,47.7,44.1,87,29.83,4.0,WNW,13.8,27.6,0.04,,Overcast,300,2012-10-09 21:35:00
4:55 PM,46.2,42.6,87,29.85,7.0,WNW,15.0,21.9,0.06,,Overcast,290,2012-10-09 21:55:00
5:15 PM,45.5,42.8,90,29.86,7.0,WNW,11.5,18.4,0.02,,Overcast,290,2012-10-09 22:15:00
5:35 PM,44.6,41.4,88,29.86,7.0,WNW,10.4,-,0.05,,Overcast,290,2012-10-09 22:35:00
5:55 PM,44.1,40.8,88,29.85,10.0,West,12.7,18.4,0.05,,Overcast,280,2012-10-09 22:55:00
6:15 PM,44.1,39.9,85,29.85,10.0,West,10.4,-,N/A,,Overcast,270,2012-10-09 23:15:00
6:35 PM,43.9,40.5,88,29.85,10.0,West,8.1,-,N/A,,Overcast,270,2012-10-09 23:35:00
6:55 PM,43.7,40.6,89,29.85,10.0,West,9.2,-,N/A,,Overcast,280,2012-10-09 23:55:00
7:15 PM,43.5,40.5,89,29.85,10.0,West,10.4,-,N/A,,Overcast,280,2012-10-10 00:15:00
7:35 PM,43.5,39.2,85,29.85,10.0,West,9.2,-,N/A,,Overcast,270,2012-10-10 00:35:00
7:55 PM,43.2,39.4,86,29.85,10.0,West,10.4,-,N/A,,Overcast,270,2012-10-10 00:55:00
8:15 PM,43.0,39.4,87,29.86,10.0,West,8.1,-,N/A,,Overcast,260,2012-10-10 01:15:00
8:35 PM,43.0,39.4,87,29.86,10.0,West,8.1,-,N/A,,Scattered Clouds,270,2012-10-10 01:35:00
8:55 PM,43.2,39.2,86,29.87,10.0,West,9.2,-,N/A,,Clear,260,2012-10-10 01:55:00
9:15 PM,42.8,39.4,88,29.87,10.0,West,8.1,-,N/A,,Clear,270,2012-10-10 02:15:00
9:35 PM,42.8,39.4,88,29.87,10.0,West,8.1,-,N/A,,Clear,270,2012-10-10 02:35:00
9:55 PM,42.8,39.6,88,29.87,10.0,West,8.1,-,N/A,,Clear,270,2012-10-10 02:55:00
10:15 PM,42.8,38.7,85,29.88,10.0,West,9.2,-,N/A,,Clear,280,2012-10-10 03:15:00
10:35 PM,42.1,39.2,90,29.89,10.0,West,9.2,-,N/A,,Clear,270,2012-10-10 03:35:00
10:55 PM,41.4,38.1,88,29.89,10.0,West,6.9,-,N/A,,Scattered Clouds,260,2012-10-10 03:55:00
11:15 PM,40.6,37.2,88,29.89,10.0,West,9.2,-,N/A,,Clear,270,2012-10-10 04:15:00
11:35 PM,40.1,36.5,87,29.89,10.0,West,9.2,-,N/A,,Clear,280,2012-10-10 04:35:00
11:55 PM,40.5,35.6,83,29.89,10.0,West,9.2,-,N/A,,Clear,270,2012-10-10 04:55:00